VTD4211 USMU-USRR

Flight info

Callsign VTD4211
Flight time 1h 9m
Altitude 34000
Route REMKI W77 OKARO R706 INDUS
Aircraft B738/M-SDE2E3FGHIRWXY/LB1

Departure

Time 2026-04-22 14:20
Airport Novy Urengoy Airport (USMU)

Arrival

Time 2026-04-22 15:29
Airport Surgut International Airport (USRR)
Time Latitude Longitude Altitude Speed Heading
2026-04-22 13:53 66.07222 76.52312 214 ft 0 kts 17°
2026-04-22 14:12 66.07203 76.52307 217 ft 3 kts 347°
2026-04-22 14:12 66.07186 76.52325 209 ft 3 kts 315°
2026-04-22 14:12 66.07184 76.52329 208 ft 0 kts 311°
2026-04-22 14:15 66.07185 76.52328 208 ft 1 kts 311°
2026-04-22 14:15 66.07191 76.52241 210 ft 8 kts 271°
2026-04-22 14:16 66.07200 76.52072 214 ft 12 kts 283°
2026-04-22 14:16 66.07229 76.51835 216 ft 17 kts 287°
2026-04-22 14:16 66.07266 76.51535 211 ft 19 kts 287°
2026-04-22 14:16 66.07307 76.51227 206 ft 19 kts 288°
2026-04-22 14:17 66.07345 76.50920 214 ft 19 kts 288°
2026-04-22 14:17 66.07356 76.50712 215 ft 11 kts 236°
2026-04-22 14:17 66.07296 76.50636 208 ft 8 kts 201°
2026-04-22 14:17 66.07242 76.50586 215 ft 10 kts 200°
2026-04-22 14:18 66.07200 76.50434 210 ft 14 kts 279°
2026-04-22 14:18 66.07245 76.50069 212 ft 29 kts 288°
2026-04-22 14:18 66.07304 76.49611 213 ft 26 kts 288°
2026-04-22 14:18 66.07372 76.49354 212 ft 12 kts 259°
2026-04-22 14:19 66.07336 76.49398 213 ft 5 kts 112°
2026-04-22 14:19 66.07283 76.49779 207 ft 52 kts 107°
2026-04-22 14:19 66.07110 76.51125 212 ft 111 kts 109°
2026-04-22 14:19 66.06809 76.53365 260 ft 161 kts 109°
2026-04-22 14:20 66.05905 76.59044 1943 ft 179 kts 135°
2026-04-22 14:20 66.04772 76.60318 2758 ft 193 kts 176°
2026-04-22 14:20 66.03458 76.59056 3544 ft 223 kts 213°
2026-04-22 14:21 66.01341 76.52821 5223 ft 247 kts 225°
2026-04-22 14:21 66.00178 76.49709 6162 ft 248 kts 217°
2026-04-22 14:22 65.97512 76.44157 7894 ft 256 kts 214°
2026-04-22 14:22 65.96133 76.41326 8753 ft 261 kts 216°
2026-04-22 14:22 65.93338 76.35344 10350 ft 274 kts 218°
2026-04-22 14:23 65.91862 76.32168 10777 ft 291 kts 218°
2026-04-22 14:23 65.90296 76.28815 11209 ft 307 kts 218°
2026-04-22 14:23 65.88642 76.25286 11625 ft 323 kts 218°
2026-04-22 14:23 65.86932 76.21658 12087 ft 335 kts 219°
2026-04-22 14:24 65.85160 76.17898 12820 ft 340 kts 219°
2026-04-22 14:24 65.83370 76.14088 13606 ft 343 kts 220°
2026-04-22 14:24 65.81563 76.10254 14291 ft 346 kts 220°
2026-04-22 14:24 65.79733 76.06394 14959 ft 350 kts 220°
2026-04-22 14:25 65.77885 76.02509 15650 ft 352 kts 220°
2026-04-22 14:25 65.76021 75.98593 16341 ft 356 kts 220°
2026-04-22 14:25 65.74138 75.94644 17027 ft 359 kts 220°
2026-04-22 14:25 65.72265 75.90721 17692 ft 362 kts 220°
2026-04-22 14:26 65.70341 75.86747 18330 ft 365 kts 219°
2026-04-22 14:26 65.68321 75.82965 18882 ft 368 kts 216°
2026-04-22 14:26 65.66211 75.79385 19454 ft 371 kts 215°
2026-04-22 14:26 65.64074 75.75860 20011 ft 373 kts 215°
2026-04-22 14:27 65.61937 75.72235 20576 ft 376 kts 216°
2026-04-22 14:27 65.59816 75.68515 21123 ft 379 kts 217°
2026-04-22 14:27 65.57679 75.64733 21650 ft 382 kts 217°
2026-04-22 14:27 65.55552 75.61008 22145 ft 384 kts 216°
2026-04-22 14:28 65.53369 75.57238 22639 ft 387 kts 216°
2026-04-22 14:28 65.51164 75.53458 23129 ft 390 kts 216°
2026-04-22 14:28 65.48940 75.49649 23591 ft 393 kts 216°
2026-04-22 14:28 65.46709 75.45817 23996 ft 395 kts 216°
2026-04-22 14:29 65.44471 75.41972 24408 ft 396 kts 216°
2026-04-22 14:29 65.42213 75.38104 24820 ft 398 kts 216°
2026-04-22 14:29 65.39948 75.34239 25234 ft 400 kts 216°
2026-04-22 14:29 65.37674 75.30370 25620 ft 402 kts 216°
2026-04-22 14:30 65.35389 75.26491 26007 ft 403 kts 216°
2026-04-22 14:30 65.33097 75.22604 26384 ft 405 kts 216°
2026-04-22 14:30 65.30793 75.18703 26752 ft 407 kts 216°
2026-04-22 14:30 65.28476 75.14788 27098 ft 408 kts 216°
2026-04-22 14:31 65.26183 75.10922 27439 ft 410 kts 215°
2026-04-22 14:31 65.23848 75.06995 27747 ft 411 kts 215°
2026-04-22 14:31 65.21504 75.03063 28046 ft 413 kts 215°
2026-04-22 14:31 65.19145 74.99115 28340 ft 415 kts 215°
2026-04-22 14:32 65.16778 74.95164 28653 ft 416 kts 215°
2026-04-22 14:32 65.14402 74.91206 28944 ft 418 kts 215°
2026-04-22 14:32 65.12015 74.87239 29218 ft 420 kts 214°
2026-04-22 14:32 65.09611 74.83251 29549 ft 421 kts 214°
2026-04-22 14:33 65.07210 74.79275 29918 ft 420 kts 214°
2026-04-22 14:33 65.04821 74.75328 30417 ft 414 kts 214°
2026-04-22 14:33 65.02482 74.71476 31073 ft 406 kts 214°
2026-04-22 14:33 65.00190 74.67705 31731 ft 397 kts 215°
2026-04-22 14:34 64.97943 74.64020 32430 ft 388 kts 215°
2026-04-22 14:34 64.95748 74.60427 33123 ft 380 kts 215°
2026-04-22 14:34 64.93578 74.56882 33528 ft 380 kts 216°
2026-04-22 14:34 64.91390 74.53312 33643 ft 386 kts 215°
2026-04-22 14:35 64.89164 74.49687 33711 ft 392 kts 215°
2026-04-22 14:35 64.86901 74.46010 33814 ft 397 kts 215°
2026-04-22 14:35 64.84606 74.42291 33816 ft 404 kts 215°
2026-04-22 14:36 64.79924 74.34727 33814 ft 412 kts 215°
2026-04-22 14:36 64.75158 74.27064 33814 ft 418 kts 215°
2026-04-22 14:37 64.70331 74.19332 33813 ft 422 kts 215°
2026-04-22 14:37 64.65481 74.11600 33815 ft 422 kts 215°
2026-04-22 14:38 64.60646 74.03925 33802 ft 419 kts 215°
2026-04-22 14:38 64.55854 73.96350 33802 ft 418 kts 215°
2026-04-22 14:39 64.51002 73.88715 33801 ft 418 kts 215°
2026-04-22 14:39 64.46210 73.81204 33803 ft 419 kts 215°
2026-04-22 14:40 64.38968 73.69920 33791 ft 418 kts 214°
2026-04-22 14:40 64.34127 73.62416 33791 ft 419 kts 214°
2026-04-22 14:41 64.30069 73.56149 33790 ft 419 kts 214°
2026-04-22 14:41 64.25429 73.49013 33787 ft 420 kts 214°
2026-04-22 14:42 64.20604 73.41623 33785 ft 420 kts 214°
2026-04-22 14:42 64.15733 73.34195 33778 ft 420 kts 214°
2026-04-22 14:43 64.05588 73.18824 33767 ft 419 kts 214°
2026-04-22 14:44 64.00725 73.11508 33760 ft 418 kts 214°
2026-04-22 14:44 63.95859 73.04260 33755 ft 418 kts 211°
2026-04-22 14:45 63.93199 73.01513 33539 ft 423 kts 198°
2026-04-22 14:45 63.90321 73.00270 33273 ft 420 kts 186°
2026-04-22 14:45 63.87455 73.00426 33018 ft 416 kts 178°
2026-04-22 14:45 63.84574 73.00938 32768 ft 416 kts 178°
2026-04-22 14:46 63.78778 73.02047 32756 ft 421 kts 178°
2026-04-22 14:46 63.72895 73.03085 32751 ft 427 kts 178°
2026-04-22 14:47 63.66948 73.04127 32743 ft 429 kts 178°
2026-04-22 14:47 63.61080 73.05179 32741 ft 422 kts 178°
2026-04-22 14:48 63.55228 73.06206 32747 ft 422 kts 178°
2026-04-22 14:48 63.49372 73.07247 32742 ft 422 kts 178°
2026-04-22 14:49 63.43522 73.08348 32746 ft 422 kts 178°
2026-04-22 14:49 63.37673 73.09421 32745 ft 422 kts 178°
2026-04-22 14:50 63.31866 73.10472 32746 ft 421 kts 178°
2026-04-22 14:50 63.26027 73.11536 32747 ft 421 kts 178°
2026-04-22 14:51 63.20189 73.12594 32741 ft 421 kts 178°
2026-04-22 14:51 63.14348 73.13645 32743 ft 421 kts 178°
2026-04-22 14:52 63.08548 73.14686 32534 ft 421 kts 178°
2026-04-22 14:52 63.05655 73.15207 32261 ft 412 kts 178°
2026-04-22 14:52 63.02824 73.15717 31992 ft 404 kts 178°
2026-04-22 14:53 63.00040 73.16214 31719 ft 400 kts 178°
2026-04-22 14:53 62.97268 73.16703 31467 ft 398 kts 178°
2026-04-22 14:53 62.94520 73.17187 31211 ft 395 kts 178°
2026-04-22 14:53 62.91793 73.17671 30767 ft 393 kts 178°
2026-04-22 14:54 62.89072 73.18153 30267 ft 392 kts 178°
2026-04-22 14:54 62.86358 73.18632 29754 ft 391 kts 178°
2026-04-22 14:54 62.83690 73.19102 29194 ft 389 kts 178°
2026-04-22 14:54 62.81000 73.19576 28675 ft 386 kts 178°
2026-04-22 14:55 62.78334 73.20045 28174 ft 383 kts 178°
2026-04-22 14:55 62.75682 73.20510 27674 ft 381 kts 178°
2026-04-22 14:55 62.73051 73.20970 27179 ft 378 kts 178°
2026-04-22 14:55 62.70438 73.21426 26687 ft 376 kts 178°
2026-04-22 14:56 62.67840 73.21879 26196 ft 373 kts 178°
2026-04-22 14:56 62.65260 73.22328 25707 ft 371 kts 178°
2026-04-22 14:56 62.62694 73.22774 25229 ft 369 kts 178°
2026-04-22 14:56 62.60144 73.23217 24746 ft 367 kts 178°
2026-04-22 14:57 62.57640 73.23650 24279 ft 365 kts 178°
2026-04-22 14:57 62.55119 73.24086 23804 ft 363 kts 178°
2026-04-22 14:57 62.52610 73.24519 23326 ft 361 kts 178°
2026-04-22 14:57 62.50116 73.24948 22805 ft 358 kts 178°
2026-04-22 14:58 62.47647 73.25374 22327 ft 353 kts 178°
2026-04-22 14:58 62.45237 73.25791 21870 ft 342 kts 178°
2026-04-22 14:58 62.42898 73.26195 21424 ft 332 kts 178°
2026-04-22 14:58 62.40629 73.26584 20994 ft 323 kts 178°
2026-04-22 14:59 62.38418 73.26960 20583 ft 315 kts 178°
2026-04-22 14:59 62.36293 73.27321 20174 ft 307 kts 179°
2026-04-22 14:59 62.34189 73.27679 19786 ft 300 kts 179°
2026-04-22 14:59 62.32089 73.28032 19408 ft 311 kts 179°
2026-04-22 15:00 62.29913 73.28394 18992 ft 312 kts 178°
2026-04-22 15:00 62.27782 73.28761 18589 ft 304 kts 178°
2026-04-22 15:00 62.25681 73.29122 18190 ft 302 kts 178°
2026-04-22 15:00 62.23588 73.29477 17767 ft 301 kts 178°
2026-04-22 15:01 62.21533 73.29823 17354 ft 299 kts 179°
2026-04-22 15:01 62.19469 73.30170 16963 ft 296 kts 179°
2026-04-22 15:01 62.17427 73.30514 16580 ft 293 kts 178°
2026-04-22 15:01 62.15404 73.30855 16194 ft 290 kts 179°
2026-04-22 15:02 62.13398 73.31193 15813 ft 288 kts 179°
2026-04-22 15:02 62.11413 73.31526 15440 ft 285 kts 178°
2026-04-22 15:02 62.09443 73.31856 15068 ft 282 kts 178°
2026-04-22 15:02 62.07492 73.32183 14707 ft 280 kts 178°
2026-04-22 15:03 62.05563 73.32505 14341 ft 277 kts 178°
2026-04-22 15:03 62.03650 73.32824 13985 ft 276 kts 178°
2026-04-22 15:03 62.01746 73.33139 13624 ft 280 kts 178°
2026-04-22 15:03 61.99792 73.33462 13226 ft 283 kts 178°
2026-04-22 15:04 61.97830 73.33551 12844 ft 279 kts 187°
2026-04-22 15:04 61.95951 73.32768 12494 ft 273 kts 196°
2026-04-22 15:04 61.94150 73.31623 12117 ft 268 kts 197°
2026-04-22 15:04 61.92381 73.30471 11766 ft 263 kts 197°
2026-04-22 15:05 61.90619 73.29317 11417 ft 267 kts 197°
2026-04-22 15:05 61.88826 73.28150 11063 ft 272 kts 197°
2026-04-22 15:05 61.87007 73.26972 10707 ft 273 kts 197°
2026-04-22 15:05 61.85235 73.25830 10356 ft 267 kts 197°
2026-04-22 15:06 61.84042 73.25062 10116 ft 263 kts 197°
2026-04-22 15:06 61.81783 73.23608 9943 ft 248 kts 197°
2026-04-22 15:06 61.80174 73.22574 9849 ft 237 kts 197°
2026-04-22 15:06 61.78615 73.21571 9744 ft 232 kts 198°
2026-04-22 15:07 61.77075 73.20581 9547 ft 234 kts 198°
2026-04-22 15:07 61.75512 73.19578 9192 ft 234 kts 198°
2026-04-22 15:07 61.73960 73.18583 8860 ft 232 kts 198°
2026-04-22 15:07 61.72425 73.17601 8546 ft 229 kts 198°
2026-04-22 15:08 61.70928 73.16645 8238 ft 227 kts 198°
2026-04-22 15:08 61.69415 73.15677 7936 ft 228 kts 198°
2026-04-22 15:08 61.67900 73.14711 7632 ft 227 kts 198°
2026-04-22 15:08 61.66387 73.13746 7328 ft 227 kts 198°
2026-04-22 15:09 61.64874 73.12782 7027 ft 227 kts 198°
2026-04-22 15:09 61.63360 73.11819 6715 ft 227 kts 198°
2026-04-22 15:09 61.61849 73.10858 6414 ft 227 kts 198°
2026-04-22 15:09 61.60336 73.09898 6104 ft 227 kts 198°
2026-04-22 15:10 61.58845 73.08953 5785 ft 226 kts 198°
2026-04-22 15:10 61.57342 73.08000 5470 ft 225 kts 198°
2026-04-22 15:10 61.55846 73.07054 5166 ft 224 kts 198°
2026-04-22 15:10 61.54350 73.06108 4864 ft 224 kts 198°
2026-04-22 15:11 61.52862 73.05167 4568 ft 223 kts 198°
2026-04-22 15:11 61.51374 73.04227 4252 ft 223 kts 198°
2026-04-22 15:11 61.49893 73.03292 3952 ft 222 kts 197°
2026-04-22 15:11 61.48442 73.02377 3653 ft 220 kts 197°
2026-04-22 15:12 61.46981 73.01459 3352 ft 219 kts 196°
2026-04-22 15:12 61.45529 73.00547 3056 ft 217 kts 195°
2026-04-22 15:12 61.44099 72.99648 2859 ft 212 kts 195°
2026-04-22 15:12 61.42690 72.98764 2669 ft 212 kts 195°
2026-04-22 15:13 61.41264 72.98004 2431 ft 211 kts 185°
2026-04-22 15:13 61.39828 72.98297 2256 ft 206 kts 163°
2026-04-22 15:13 61.38615 72.99783 2201 ft 202 kts 142°
2026-04-22 15:13 61.37650 73.01782 2119 ft 194 kts 140°
2026-04-22 15:14 61.36758 73.03734 2032 ft 178 kts 140°
2026-04-22 15:14 61.35944 73.05525 1997 ft 165 kts 140°
2026-04-22 15:14 61.35175 73.07198 1981 ft 155 kts 140°
2026-04-22 15:14 61.34483 73.08883 1966 ft 157 kts 127°
2026-04-22 15:15 61.34302 73.11216 1996 ft 172 kts 96°
2026-04-22 15:15 61.34310 73.13678 1975 ft 166 kts 102°
2026-04-22 15:15 61.34302 73.15994 1974 ft 158 kts 102°
2026-04-22 15:15 61.34302 73.18296 1971 ft 158 kts 101°
2026-04-22 15:16 61.34310 73.20534 1800 ft 152 kts 101°
2026-04-22 15:16 61.34320 73.22670 1586 ft 143 kts 101°
2026-04-22 15:16 61.34327 73.24706 1400 ft 139 kts 101°
2026-04-22 15:16 61.34333 73.26712 1222 ft 140 kts 100°
2026-04-22 15:17 61.34342 73.28700 1069 ft 136 kts 97°
2026-04-22 15:17 61.34351 73.30691 849 ft 139 kts 95°
2026-04-22 15:17 61.34358 73.32697 684 ft 138 kts 93°
2026-04-22 15:17 61.34363 73.34718 521 ft 141 kts 91°
2026-04-22 15:18 61.34378 73.36786 336 ft 145 kts 91°
2026-04-22 15:18 61.34386 73.38840 219 ft 134 kts 91°
2026-04-22 15:18 61.34387 73.40757 431 ft 139 kts 94°
2026-04-22 15:18 61.34678 73.42701 1122 ft 162 kts 57°
2026-04-22 15:19 61.35825 73.43772 1783 ft 201 kts
2026-04-22 15:19 61.37142 73.42754 2674 ft 207 kts 309°
2026-04-22 15:19 61.37890 73.40133 3350 ft 224 kts 281°
2026-04-22 15:19 61.38415 73.36988 3631 ft 224 kts 281°
2026-04-22 15:20 61.38752 73.35016 3599 ft 215 kts 281°
2026-04-22 15:20 61.39693 73.31378 3507 ft 210 kts 294°
2026-04-22 15:20 61.40481 73.28887 3451 ft 208 kts 295°
2026-04-22 15:20 61.41276 73.26393 3407 ft 205 kts 294°
2026-04-22 15:21 61.42054 73.23906 3376 ft 204 kts 294°
2026-04-22 15:21 61.42826 73.21411 3364 ft 204 kts 294°
2026-04-22 15:21 61.43594 73.18920 3338 ft 203 kts 294°
2026-04-22 15:21 61.44360 73.16437 3300 ft 204 kts 294°
2026-04-22 15:22 61.44891 73.13793 3246 ft 190 kts 268°
2026-04-22 15:22 61.44716 73.11235 3154 ft 172 kts 236°
2026-04-22 15:22 61.44093 73.09201 3076 ft 169 kts 228°
2026-04-22 15:22 61.43404 73.07198 3014 ft 170 kts 227°
2026-04-22 15:23 61.42705 73.05194 2993 ft 171 kts 227°
2026-04-22 15:23 61.42005 73.03172 2845 ft 176 kts 227°
2026-04-22 15:23 61.41249 73.01204 2577 ft 168 kts 216°
2026-04-22 15:23 61.40278 73.00054 2360 ft 158 kts 193°
2026-04-22 15:24 61.39214 72.99920 2298 ft 154 kts 172°
2026-04-22 15:24 61.38202 73.00764 2255 ft 163 kts 150°
2026-04-22 15:24 61.37363 73.02399 2171 ft 167 kts 141°
2026-04-22 15:24 61.36571 73.04122 2072 ft 166 kts 140°
2026-04-22 15:25 61.35776 73.05863 2010 ft 167 kts 140°
2026-04-22 15:25 61.34983 73.07660 1996 ft 169 kts 134°
2026-04-22 15:25 61.34438 73.09814 1974 ft 169 kts 117°
2026-04-22 15:25 61.34262 73.12242 1974 ft 173 kts 100°
2026-04-22 15:26 61.34276 73.14735 1970 ft 169 kts 100°
2026-04-22 15:26 61.34290 73.17159 1973 ft 167 kts 101°
2026-04-22 15:26 61.34300 73.19551 1868 ft 169 kts 100°
2026-04-22 15:26 61.34314 73.21938 1642 ft 159 kts 99°
2026-04-22 15:27 61.34326 73.24133 1463 ft 144 kts 100°
2026-04-22 15:27 61.34334 73.26169 1296 ft 139 kts 101°
2026-04-22 15:27 61.34338 73.28201 1086 ft 139 kts 98°
2026-04-22 15:27 61.34332 73.30236 861 ft 142 kts 93°
2026-04-22 15:28 61.34370 73.32294 669 ft 143 kts 94°
2026-04-22 15:28 61.34369 73.34346 494 ft 140 kts 93°
2026-04-22 15:28 61.34376 73.36372 334 ft 141 kts 91°
2026-04-22 15:28 61.34392 73.38404 203 ft 137 kts 94°
2026-04-22 15:29 61.34385 73.39526 215 ft 87 kts 89°
2026-04-22 15:29 61.34363 73.40189 208 ft 13 kts 150°
2026-04-22 15:29 61.34306 73.40199 209 ft 3 kts 179°
2026-04-22 15:30 61.34197 73.40189 210 ft 9 kts 208°
2026-04-22 15:30 61.34120 73.40126 211 ft 10 kts 181°
2026-04-22 15:30 61.34074 73.40070 215 ft 8 kts 247°
2026-04-22 15:30 61.34091 73.40023 216 ft 4 kts 342°
2026-04-22 15:31 61.34117 73.40016 210 ft 3 kts 358°
2026-04-22 15:31 61.34122 73.40016 210 ft 0 kts 359°